Location: Cruquius
(52.3348°N, 4.6319°E)
Time: 18:49:14
(UTC+00:00)

USA 308 - Pass Details

Date: 12 May 2021
Orbit: 568 x 576 km, 54.0° (Epoch: 10 May)

Event Time Altitude Azimuth Distance (km) Brightness Sun altitude
Rises 21:22:06 0° 290° (WNW) 2,786 7.3 -13.4°
Reaches altitude 10° 21:24:32 10° 279° (W) 1,886 6.1 -13.6°
Maximum altitude 21:28:17 30° 219° (SW) 1,047 4.0 -13.9°
Enters shadow 21:30:15 21° 175° (S) 1,328 4.2 -14.1°
